User: anonymous   Login
Location: Steinbach
(49.5170°N, 96.6830°W)
Time: 16:47:42
(UTC-05:00)
Language:

NOSS 3-4 (A) - Orbit

View from above orbital plane
View from above orbital plane
View from above satellite
View from above satellite

Ground track
Ground track

The orbit data is extracted from the following two-line orbital elements,

1 31701U 07027A   15190.88633423 0.00000000  00000-0  00000-0 0    04
2 31701  63.4020  88.5921 0136000  30.7758 329.2242 13.40685947    03
Epoch (UTC): 09 July 2015 21:16:19
Eccentricity: 0.0136000
inclination: 63.4020°
perigee height: 1005 km
apogee height: 1208 km
right ascension of ascending node: 88.5921°
argument of perigee: 30.7758°
revolutions per day: 13.40685947
mean anomaly at epoch: 329.2242°
orbit number at epoch: 0

The dashed part of the orbit path shows where the satellite is in the earth's shadow,  

DLR